[Iaude] MPEC T54: 2023 TJ1 [a=2.09,e=0.54,i=6.9,H=25.2]

mpec at marsden.cfa.harvard.edu mpec at marsden.cfa.harvard.edu
Fri Oct 6 20:52:46 EDT 2023


M.P.E.C. 2023-T54                               Issued 2023 October 7, 00:51 UT

     The Minor Planet Electronic Circulars contain information on unusual
         minor planets, routine data on comets and natural satellites,
         and occasional editorial announcements.  They are published
    on behalf of Division F of the International Astronomical Union by the
          Minor Planet Center, Smithsonian Astrophysical Observatory,
                          Cambridge, MA 02138, U.S.A.
			  
             Prepared using the Tamkin Foundation Computer Network

                              MPC at CFA.HARVARD.EDU
            URL https://www.minorplanetcenter.net/    ISSN 1523-6714

                                    2023 TJ1                                    


Observations:
     K23T01J*1C2023 10 05.10515522 02 57.419+15 01 03.29               VET054G96
     K23T01J 1C2023 10 05.11075722 02 55.525+15 02 09.96         20.89GVET054G96
     K23T01J 1C2023 10 05.11636422 02 53.545+15 03 18.50         20.63GVET054G96
     K23T01J 1C2023 10 05.12197122 02 51.612+15 04 26.18         20.67GVET054G96
     K23T01J KC2023 10 05.14889222 02 41.41 +15 09 45.6          20.6 GXET054858
     K23T01J KC2023 10 05.16042222 02 37.37 +15 12 05.6          20.9 GXET054858
     K23T01J KC2023 10 05.22758122 02 13.960+15 25 43.72         20.45GVET054I52
     K23T01J KC2023 10 05.22882122 02 13.524+15 25 59.34         20.15GVET054I52
     K23T01J 7C2023 10 05.87066521 58 49.275+17 40 02.37         20.5 GVET054Z84
     K23T01J 7C2023 10 05.87530621 58 47.477+17 41 02.57         20.6 GVET054Z84
     K23T01J 7C2023 10 05.87994421 58 45.695+17 42 02.83         20.1 GVET054Z84
     K23T01J KC2023 10 06.04011621 57 54.86 +18 16 46.5          21.5 VuET054H21
     K23T01J KC2023 10 06.04570921 57 52.70 +18 18 00.6          21.7 VuET054H21
     K23T01J KC2023 10 06.04859921 57 51.59 +18 18 39.2          21.7 VuET054H21
     K23T01J KC2023 10 06.09128521 57 37.45 +18 28 11.6          20.9 GXET054858
     K23T01J KC2023 10 06.09788921 57 34.86 +18 29 39.9          20.7 GXET054858
     K23T01J KC2023 10 06.10455521 57 32.28 +18 31 09.1          20.6 GXET054858
     K23T01J KB2023 10 06.79639621 53 22.17 +21 08 44.5          20.5 GVET054I93
     K23T01J KB2023 10 06.80820621 53 17.15 +21 11 33.3          20.6 GVET054I93
     K23T01J KB2023 10 06.82000321 53 12.14 +21 14 21.8                VET054I93
     K23T01J KC2023 10 06.85273021 52 56.39 +21 22 06.4          20.8 GVET054L01
     K23T01J KC2023 10 06.85421221 52 55.70 +21 22 27.9          20.6 GVET054L01
     K23T01J KC2023 10 06.85717721 52 54.43 +21 23 10.0          20.3 GVET054L01
     K23T01J KC2023 10 06.85865821 52 53.85 +21 23 30.4          20.6 GVET054L01

Observer details:
858 Tebbutt Observatory, Edgewood.  Observer F. B. Zoltowski.  0.51-m f/8.1
    Schmidt-Cassegrain + CCD.
G96 Mt. Lemmon Survey.  Observer G. J. Leonard.  Measurers E. C. Beshore, D.
    Fay, J. B. Fazekas, D. C. Fuls, A. R. Gibbs, A. D. Grauer, H. Groeller, J.
    K. Hogan, R. A. Kowalski, S. M. Larson, G. J. Leonard, D. Rankin, R. L.
    Seaman, F. C. Shelly, K. W. Wierzchos.  1.5-m reflector + 10K CCD.
H21 Astronomical Research Observatory, Westfield.  Observer R. Holmes.
    Measurers T. Linder, R. Holmes, L. Horn.  0.76-m f/3.0 astrograph + CCD.
I52 Steward Observatory, Mt. Lemmon Station.  Observer D. Rankin.  Measurers
    E. C. Beshore, D. Fay, J. B. Fazekas, D. C. Fuls, A. R. Gibbs, A. D.
    Grauer, H. Groeller, J. K. Hogan, R. A. Kowalski, S. M. Larson, G. J.
    Leonard, D. Rankin, R. L. Seaman, F. C. Shelly, K. W. Wierzchos.  1.0-m
    prime focus + CCD.
I93 St Pardon de Conques.  Observer F. Losse.  0.40-m f/3.7 reflector + CMO.
L01 Visnjan Observatory, Tican.  Observer K. Korlevic.  1.0-m f/2.9 reflector
    + CCD.
Z84 Calar Alto-Schmidt.  Observers F. Ocana, M. Micheli, R. Kresken, L.
    Conversi.  Measurers F. Ocana, M. Micheli.  0.8-m f/3 Schmidt + CCD.

Orbital elements:
2023 TJ1                                                 Earth MOID = 0.0477 AU
Epoch 2023 Sept. 13.0 TT = JDT 2460200.5                Veres                   
M 342.12407              (2000.0)            P               Q                  
n   0.32669082     Peri.   52.41875     +0.65288704     -0.75742577             
a   2.0879083      Node   356.79754     +0.65174780     +0.56624906             
e   0.5369491      Incl.    6.87464     +0.38595766     +0.32506647             
P   3.02           H   25.27          G   0.15           U   9                  
Residuals in seconds of arc
231005 G96  0.7-  0.3+    231005 Z84  0.2+  0.1+    231006 858  0.1+  0.4+
231005 G96  0.1+  0.8-    231005 Z84  0.0   0.1+    231006 I93  0.5+  0.9-
231005 G96  0.2-  0.0     231005 Z84  0.0   0.2+    231006 I93  0.0   0.6-
231005 G96  0.3+  0.1-    231006 H21  0.4+  0.5+    231006 I93  0.2-  0.3-
231005 858  0.4-  1.0-    231006 H21  0.3+  0.4+    231006 L01  0.2+  0.6-
231005 858  0.3+  0.3-    231006 H21  0.4+  0.6+    231006 L01  0.6-  0.1-
231005 I52  0.0   0.2-    231006 858  0.2-  0.0     231006 L01  0.6-  0.1-
231005 I52  0.1+  0.4+    231006 858  0.3-  0.2+    231006 L01  0.1+  0.8-

Ephemeris:
2023 TJ1                 a,e,i = 2.09, 0.54, 7                   q = 0.9668
Date    TT    R. A. (2000) Decl.     Delta      r    Elong.  Phase     V
2023 09 07    23 01 05.3 -16 19 43   0.2156  1.2208   170.0     8.2    22.9
...
2023 09 22    22 41 46.7 -08 53 47   0.1255  1.1229   160.2    17.7    21.9
...
2023 09 30    22 22 57.7 +01 51 03   0.08610 1.0771   150.0    27.7    21.3
...
2023 10 06    21 58 05.2 +18 08 43   0.06262 1.0468   137.2    40.5    20.9
2023 10 07    21 52 00.9 +21 58 03   0.05957 1.0421   134.2    43.4    20.9
2023 10 08    21 45 02.4 +26 09 12   0.05686 1.0376   130.9    46.7    20.9
...
2023 10 14    20 23 44.6 +56 13 40   0.05006 1.0128   106.2    71.1    21.3
...
2023 10 22    14 32 57.0 +69 59 52   0.06709 0.9874    81.2    94.9    22.8
...
2023 11 06    11 56 44.0 +50 13 30   0.1290  0.9668    75.3    97.3    24.2

M. P. C. Staff               (C) Copyright 2023 MPC           M.P.E.C. 2023-T54





More information about the Iaude mailing list